CKS379 KJFK-KIND

Flight info

Callsign CKS379
Flight time 1h 47m
Altitude 30000
Route DEEZZ6 CANDR J60 DANNR RAV J64 MAINE RINTE SNKPT2
Aircraft B77L/H-SDE1E2E3FGHIJ2J3J4J5M1RWXY/LB1D1

Departure

Time 2026-05-06 22:00
Airport John F. Kennedy International Airport (KJFK)

Arrival

Time 2026-05-06 23:47
Airport Indianapolis International Airport (KIND)
Time Latitude Longitude Altitude Speed Heading
2026-05-06 21:45 40.66067 -73.78398 31 ft 0 kts 31°
2026-05-06 21:50 40.66051 -73.78411 32 ft 5 kts 30°
2026-05-06 21:50 40.66030 -73.78420 32 ft 5 kts
2026-05-06 21:50 40.66005 -73.78413 32 ft 3 kts 309°
2026-05-06 21:50 40.66003 -73.78409 32 ft 0 kts 298°
2026-05-06 21:54 40.66024 -73.78460 31 ft 17 kts 298°
2026-05-06 21:54 40.66026 -73.78607 29 ft 17 kts 235°
2026-05-06 21:54 40.65931 -73.78739 31 ft 21 kts 208°
2026-05-06 21:54 40.65797 -73.78771 27 ft 21 kts 140°
2026-05-06 21:55 40.65708 -73.78579 29 ft 32 kts 119°
2026-05-06 21:55 40.65566 -73.78272 28 ft 41 kts 121°
2026-05-06 21:55 40.65427 -73.77965 31 ft 37 kts 121°
2026-05-06 21:55 40.65300 -73.77687 30 ft 35 kts 121°
2026-05-06 21:56 40.65182 -73.77421 31 ft 32 kts 121°
2026-05-06 21:56 40.65066 -73.77166 28 ft 34 kts 120°
2026-05-06 21:56 40.64953 -73.76904 30 ft 31 kts 102°
2026-05-06 21:56 40.64977 -73.76635 30 ft 30 kts 72°
2026-05-06 21:57 40.65102 -73.76484 29 ft 19 kts 89°
2026-05-06 21:57 40.65093 -73.76449 27 ft 2 kts 118°
2026-05-06 21:57 40.65039 -73.76367 27 ft 15 kts 155°
2026-05-06 21:57 40.64935 -73.76420 26 ft 23 kts 211°
2026-05-06 21:58 40.64740 -73.76573 28 ft 36 kts 211°
2026-05-06 21:58 40.64530 -73.76738 27 ft 34 kts 211°
2026-05-06 21:58 40.64336 -73.76889 29 ft 31 kts 211°
2026-05-06 21:58 40.64189 -73.77004 31 ft 0 kts 211°
2026-05-06 21:59 40.64098 -73.77075 30 ft 50 kts 211°
2026-05-06 21:59 40.63555 -73.77495 32 ft 128 kts 210°
2026-05-06 21:59 40.62595 -73.78237 45 ft 188 kts 210°
2026-05-06 21:59 40.61405 -73.79183 483 ft 208 kts 211°
2026-05-06 22:00 40.60141 -73.80224 1241 ft 216 kts 214°
2026-05-06 22:00 40.58922 -73.81339 2125 ft 213 kts 230°
2026-05-06 22:00 40.58182 -73.83013 2908 ft 213 kts 246°
2026-05-06 22:00 40.57630 -73.84855 3554 ft 220 kts 258°
2026-05-06 22:01 40.57781 -73.86839 4380 ft 228 kts 294°
2026-05-06 22:01 40.58871 -73.88385 5267 ft 236 kts 321°
2026-05-06 22:01 40.60376 -73.89364 6083 ft 248 kts 333°
2026-05-06 22:01 40.62102 -73.89754 6848 ft 262 kts 354°
2026-05-06 22:02 40.63949 -73.89472 7467 ft 276 kts
2026-05-06 22:02 40.65843 -73.88975 8288 ft 279 kts
2026-05-06 22:02 40.67769 -73.88444 8973 ft 287 kts
2026-05-06 22:02 40.69738 -73.87909 9689 ft 291 kts
2026-05-06 22:03 40.71737 -73.87381 10379 ft 295 kts
2026-05-06 22:03 40.73764 -73.86861 11058 ft 298 kts
2026-05-06 22:03 40.75813 -73.86389 11747 ft 301 kts
2026-05-06 22:03 40.77904 -73.85954 12337 ft 309 kts
2026-05-06 22:04 40.80066 -73.85491 12911 ft 317 kts
2026-05-06 22:04 40.82247 -73.84991 13708 ft 318 kts
2026-05-06 22:04 40.84429 -73.84472 14398 ft 320 kts
2026-05-06 22:04 40.86633 -73.83938 15027 ft 324 kts
2026-05-06 22:05 40.88867 -73.83391 15625 ft 329 kts
2026-05-06 22:05 40.91132 -73.82833 16253 ft 332 kts
2026-05-06 22:05 40.93411 -73.82268 16901 ft 335 kts
2026-05-06 22:05 40.95717 -73.81695 17526 ft 338 kts
2026-05-06 22:06 40.98042 -73.81116 18158 ft 342 kts
2026-05-06 22:06 41.00390 -73.80533 18725 ft 344 kts
2026-05-06 22:06 41.02750 -73.79945 19316 ft 345 kts
2026-05-06 22:06 41.05111 -73.79357 19924 ft 346 kts
2026-05-06 22:07 41.07451 -73.79149 20402 ft 328 kts 339°
2026-05-06 22:07 41.09507 -73.80105 20920 ft 302 kts 316°
2026-05-06 22:07 41.11039 -73.81850 21587 ft 283 kts 301°
2026-05-06 22:07 41.12195 -73.83905 22303 ft 273 kts 292°
2026-05-06 22:08 41.12882 -73.86184 22985 ft 263 kts 278°
2026-05-06 22:08 41.13259 -73.88546 23614 ft 261 kts 278°
2026-05-06 22:08 41.13623 -73.90916 24087 ft 263 kts 278°
2026-05-06 22:08 41.13990 -73.93292 24586 ft 265 kts 277°
2026-05-06 22:09 41.14363 -73.95704 24992 ft 269 kts 278°
2026-05-06 22:09 41.14746 -73.98146 25462 ft 272 kts 278°
2026-05-06 22:09 41.15137 -74.00608 25985 ft 274 kts 277°
2026-05-06 22:09 41.15532 -74.03079 26533 ft 274 kts 277°
2026-05-06 22:10 41.15930 -74.05572 27004 ft 278 kts 278°
2026-05-06 22:10 41.16331 -74.08088 27460 ft 280 kts 277°
2026-05-06 22:10 41.16735 -74.10627 27955 ft 281 kts 277°
2026-05-06 22:10 41.17053 -74.13147 28448 ft 281 kts 274°
2026-05-06 22:11 41.17310 -74.15766 28899 ft 284 kts 274°
2026-05-06 22:11 41.17551 -74.18347 29368 ft 286 kts 274°
2026-05-06 22:11 41.17796 -74.20984 29801 ft 290 kts 274°
2026-05-06 22:11 41.18048 -74.23686 29784 ft 301 kts 274°
2026-05-06 22:12 41.18581 -74.29371 29835 ft 320 kts 274°
2026-05-06 22:12 41.18864 -74.32354 29834 ft 331 kts 274°
2026-05-06 22:12 41.19154 -74.35432 29833 ft 341 kts 274°
2026-05-06 22:13 41.19451 -74.38606 29834 ft 352 kts 274°
2026-05-06 22:13 41.19548 -74.41866 29824 ft 357 kts 264°
2026-05-06 22:13 41.18510 -74.48477 29846 ft 375 kts 255°
2026-05-06 22:14 41.17539 -74.51737 29834 ft 387 kts 246°
2026-05-06 22:14 41.16139 -74.54845 29817 ft 397 kts 244°
2026-05-06 22:14 41.13183 -74.61150 29821 ft 408 kts 244°
2026-05-06 22:15 41.10197 -74.67575 29822 ft 409 kts 244°
2026-05-06 22:15 41.07238 -74.74000 29820 ft 408 kts 244°
2026-05-06 22:16 41.04292 -74.80411 29814 ft 407 kts 244°
2026-05-06 22:16 41.01350 -74.86799 29816 ft 406 kts 244°
2026-05-06 22:17 40.98479 -74.93227 29787 ft 403 kts 248°
2026-05-06 22:17 40.96216 -74.99980 29813 ft 401 kts 252°
2026-05-06 22:18 40.94529 -75.07006 29834 ft 401 kts 256°
2026-05-06 22:18 40.92903 -75.14079 29819 ft 402 kts 255°
2026-05-06 22:19 40.91248 -75.21150 29815 ft 403 kts 255°
2026-05-06 22:19 40.89574 -75.28213 29824 ft 403 kts 255°
2026-05-06 22:20 40.87896 -75.35289 29820 ft 403 kts 255°
2026-05-06 22:20 40.86218 -75.42345 29820 ft 402 kts 255°
2026-05-06 22:21 40.84563 -75.49339 29790 ft 400 kts 255°
2026-05-06 22:21 40.82891 -75.56387 29805 ft 400 kts 255°
2026-05-06 22:22 40.81237 -75.63346 29803 ft 400 kts 255°
2026-05-06 22:22 40.79563 -75.70367 29823 ft 401 kts 255°
2026-05-06 22:23 40.77881 -75.77394 29818 ft 402 kts 255°
2026-05-06 22:23 40.76194 -75.84418 29831 ft 401 kts 255°
2026-05-06 22:24 40.74508 -75.91417 29812 ft 400 kts 255°
2026-05-06 22:24 40.72826 -75.98384 29827 ft 397 kts 255°
2026-05-06 22:25 40.71148 -76.05316 29801 ft 397 kts 255°
2026-05-06 22:25 40.69466 -76.12243 29843 ft 398 kts 255°
2026-05-06 22:26 40.67773 -76.19192 29874 ft 399 kts 255°
2026-05-06 22:26 40.65965 -76.26105 29868 ft 401 kts 251°
2026-05-06 22:27 40.63817 -76.32882 29875 ft 401 kts 251°
2026-05-06 22:27 40.61685 -76.39659 29869 ft 400 kts 251°
2026-05-06 22:28 40.59560 -76.46412 29853 ft 399 kts 251°
2026-05-06 22:28 40.57465 -76.53109 29831 ft 397 kts 253°
2026-05-06 22:29 40.56324 -76.60153 29778 ft 393 kts 263°
2026-05-06 22:29 40.55939 -76.67329 29815 ft 395 kts 271°
2026-05-06 22:30 40.56575 -76.74552 29828 ft 399 kts 275°
2026-05-06 22:30 40.57267 -76.81807 29831 ft 401 kts 274°
2026-05-06 22:31 40.57934 -76.89083 29848 ft 401 kts 274°
2026-05-06 22:31 40.58585 -76.96347 29843 ft 399 kts 274°
2026-05-06 22:32 40.59224 -77.03572 29841 ft 397 kts 274°
2026-05-06 22:32 40.59857 -77.10776 29848 ft 396 kts 274°
2026-05-06 22:33 40.60484 -77.17970 29846 ft 395 kts 274°
2026-05-06 22:33 40.61106 -77.25152 29875 ft 395 kts 274°
2026-05-06 22:34 40.61620 -77.31131 29870 ft 395 kts 274°
2026-05-06 22:34 40.62236 -77.38320 29878 ft 395 kts 274°
2026-05-06 22:35 40.62845 -77.45516 29892 ft 395 kts 274°
2026-05-06 22:35 40.63439 -77.52720 29886 ft 396 kts 274°
2026-05-06 22:36 40.64034 -77.59933 29903 ft 396 kts 274°
2026-05-06 22:36 40.64623 -77.67138 29893 ft 395 kts 273°
2026-05-06 22:37 40.65210 -77.74324 29905 ft 395 kts 273°
2026-05-06 22:37 40.65790 -77.81514 29883 ft 395 kts 273°
2026-05-06 22:38 40.66364 -77.88702 29885 ft 394 kts 273°
2026-05-06 22:38 40.66934 -77.95886 29915 ft 395 kts 273°
2026-05-06 22:39 40.67494 -78.03024 29904 ft 394 kts 273°
2026-05-06 22:39 40.68055 -78.10208 29895 ft 393 kts 273°
2026-05-06 22:40 40.68609 -78.17363 29902 ft 393 kts 273°
2026-05-06 22:40 40.69160 -78.24529 29893 ft 393 kts 273°
2026-05-06 22:41 40.69976 -78.35264 29906 ft 393 kts 273°
2026-05-06 22:42 40.70514 -78.42438 29913 ft 394 kts 273°
2026-05-06 22:42 40.71050 -78.49620 29911 ft 394 kts 273°
2026-05-06 22:43 40.71580 -78.56786 29905 ft 394 kts 273°
2026-05-06 22:43 40.72108 -78.63971 29904 ft 394 kts 272°
2026-05-06 22:44 40.72628 -78.71158 29930 ft 393 kts 272°
2026-05-06 22:44 40.73143 -78.78291 29929 ft 389 kts 272°
2026-05-06 22:45 40.73650 -78.85373 29938 ft 387 kts 272°
2026-05-06 22:45 40.74149 -78.92433 29946 ft 387 kts 272°
2026-05-06 22:46 40.74646 -78.99501 29955 ft 387 kts 272°
2026-05-06 22:46 40.75134 -79.06539 30006 ft 388 kts 272°
2026-05-06 22:47 40.75624 -79.13640 29951 ft 388 kts 272°
2026-05-06 22:47 40.76108 -79.20723 29949 ft 387 kts 272°
2026-05-06 22:48 40.76588 -79.27799 29941 ft 387 kts 272°
2026-05-06 22:48 40.77060 -79.34868 29945 ft 386 kts 272°
2026-05-06 22:49 40.77530 -79.41925 29949 ft 386 kts 272°
2026-05-06 22:49 40.77996 -79.48986 29961 ft 386 kts 272°
2026-05-06 22:50 40.78455 -79.56019 29948 ft 384 kts 272°
2026-05-06 22:50 40.78906 -79.63028 29953 ft 383 kts 272°
2026-05-06 22:51 40.79354 -79.70031 29937 ft 383 kts 272°
2026-05-06 22:51 40.79799 -79.77036 29941 ft 383 kts 272°
2026-05-06 22:52 40.80239 -79.84046 29974 ft 383 kts 271°
2026-05-06 22:52 40.80675 -79.91057 29958 ft 383 kts 271°
2026-05-06 22:53 40.81108 -79.98068 29954 ft 383 kts 271°
2026-05-06 22:53 40.81530 -80.05034 29977 ft 383 kts 271°
2026-05-06 22:54 40.81953 -80.12049 29963 ft 383 kts 271°
2026-05-06 22:54 40.82374 -80.19056 30008 ft 383 kts 271°
2026-05-06 22:55 40.82767 -80.26057 29982 ft 381 kts 271°
2026-05-06 22:55 40.83121 -80.33037 29985 ft 380 kts 270°
2026-05-06 22:56 40.83471 -80.39999 30001 ft 380 kts 271°
2026-05-06 22:56 40.83818 -80.46958 29990 ft 380 kts 270°
2026-05-06 22:57 40.84166 -80.53934 30006 ft 381 kts 270°
2026-05-06 22:57 40.84510 -80.60924 30001 ft 381 kts 270°
2026-05-06 22:58 40.84848 -80.67901 30013 ft 381 kts 270°
2026-05-06 22:58 40.85181 -80.74841 29999 ft 381 kts 270°
2026-05-06 22:59 40.85513 -80.81823 29995 ft 381 kts 270°
2026-05-06 22:59 40.85839 -80.88804 30005 ft 381 kts 270°
2026-05-06 23:00 40.86161 -80.95791 30003 ft 381 kts 270°
2026-05-06 23:00 40.86479 -81.02763 29992 ft 380 kts 270°
2026-05-06 23:01 40.86793 -81.09717 29992 ft 379 kts 270°
2026-05-06 23:01 40.87100 -81.16657 29989 ft 378 kts 270°
2026-05-06 23:02 40.87406 -81.23594 29995 ft 378 kts 270°
2026-05-06 23:02 40.87708 -81.30533 30010 ft 378 kts 269°
2026-05-06 23:03 40.88006 -81.37474 29994 ft 378 kts 270°
2026-05-06 23:03 40.88298 -81.44360 29988 ft 378 kts 269°
2026-05-06 23:04 40.88587 -81.51286 29997 ft 377 kts 269°
2026-05-06 23:04 40.88873 -81.58218 29985 ft 378 kts 269°
2026-05-06 23:05 40.88841 -81.65124 29988 ft 375 kts 263°
2026-05-06 23:05 40.88141 -81.71945 29994 ft 375 kts 260°
2026-05-06 23:06 40.86922 -81.78636 29988 ft 375 kts 254°
2026-05-06 23:06 40.85288 -81.85191 29989 ft 376 kts 253°
2026-05-06 23:07 40.83656 -81.91746 29986 ft 375 kts 254°
2026-05-06 23:07 40.82027 -81.98306 29990 ft 376 kts 254°
2026-05-06 23:08 40.80397 -82.04873 29992 ft 376 kts 254°
2026-05-06 23:08 40.78774 -82.11401 29990 ft 377 kts 253°
2026-05-06 23:09 40.77136 -82.17972 29976 ft 377 kts 253°
2026-05-06 23:09 40.75494 -82.24543 29990 ft 377 kts 254°
2026-05-06 23:10 40.73848 -82.31113 29981 ft 377 kts 253°
2026-05-06 23:10 40.72198 -82.37678 29988 ft 377 kts 253°
2026-05-06 23:11 40.70545 -82.44233 30012 ft 376 kts 253°
2026-05-06 23:11 40.68891 -82.50780 29999 ft 376 kts 253°
2026-05-06 23:12 40.67236 -82.57315 29965 ft 376 kts 253°
2026-05-06 23:12 40.65578 -82.63839 30002 ft 375 kts 253°
2026-05-06 23:13 40.63916 -82.70363 29993 ft 376 kts 253°
2026-05-06 23:13 40.62248 -82.76892 30004 ft 376 kts 253°
2026-05-06 23:14 40.60586 -82.83383 30016 ft 377 kts 253°
2026-05-06 23:14 40.58909 -82.89915 30003 ft 377 kts 253°
2026-05-06 23:15 40.57227 -82.96445 30008 ft 377 kts 253°
2026-05-06 23:15 40.55543 -83.02965 30011 ft 376 kts 253°
2026-05-06 23:16 40.53858 -83.09476 30009 ft 376 kts 253°
2026-05-06 23:16 40.52167 -83.15987 30024 ft 376 kts 253°
2026-05-06 23:17 40.50476 -83.22486 30007 ft 375 kts 253°
2026-05-06 23:17 40.48785 -83.28965 30017 ft 375 kts 253°
2026-05-06 23:18 40.47090 -83.35445 30002 ft 375 kts 253°
2026-05-06 23:18 40.45393 -83.41913 30003 ft 374 kts 253°
2026-05-06 23:19 40.43695 -83.48367 30012 ft 374 kts 252°
2026-05-06 23:19 40.41997 -83.54806 30056 ft 373 kts 252°
2026-05-06 23:20 40.40306 -83.61204 30024 ft 373 kts 252°
2026-05-06 23:20 40.38602 -83.67630 30024 ft 373 kts 252°
2026-05-06 23:21 40.36898 -83.74042 30028 ft 372 kts 252°
2026-05-06 23:21 40.35478 -83.79375 30014 ft 373 kts 252°
2026-05-06 23:22 40.33767 -83.85784 30019 ft 372 kts 252°
2026-05-06 23:22 40.32052 -83.92190 30035 ft 372 kts 252°
2026-05-06 23:23 40.30337 -83.98582 30000 ft 371 kts 252°
2026-05-06 23:23 40.28815 -84.05037 30006 ft 371 kts 259°
2026-05-06 23:24 40.28523 -84.11804 30016 ft 374 kts 265°
2026-05-06 23:24 40.28317 -84.18611 30018 ft 374 kts 264°
2026-05-06 23:25 40.28088 -84.25429 30017 ft 375 kts 264°
2026-05-06 23:25 40.27851 -84.32259 30027 ft 376 kts 264°
2026-05-06 23:26 40.27611 -84.39047 30020 ft 375 kts 264°
2026-05-06 23:26 40.27367 -84.45865 30019 ft 374 kts 264°
2026-05-06 23:27 40.27117 -84.52712 30014 ft 374 kts 264°
2026-05-06 23:27 40.26867 -84.59458 30022 ft 373 kts 264°
2026-05-06 23:28 40.26615 -84.66225 30011 ft 360 kts 264°
2026-05-06 23:28 40.26494 -84.69443 29842 ft 351 kts 264°
2026-05-06 23:28 40.26372 -84.72642 29121 ft 349 kts 264°
2026-05-06 23:28 40.26254 -84.75798 28449 ft 345 kts 264°
2026-05-06 23:29 40.26141 -84.78871 27829 ft 340 kts 264°
2026-05-06 23:29 40.26027 -84.81941 27200 ft 336 kts 264°
2026-05-06 23:29 40.25913 -84.84981 26580 ft 333 kts 264°
2026-05-06 23:29 40.25798 -84.87999 25980 ft 330 kts 264°
2026-05-06 23:30 40.25684 -84.90986 25390 ft 328 kts 264°
2026-05-06 23:30 40.25570 -84.93957 24821 ft 326 kts 264°
2026-05-06 23:30 40.25455 -84.96920 24238 ft 326 kts 264°
2026-05-06 23:30 40.25339 -84.99885 23641 ft 326 kts 264°
2026-05-06 23:31 40.25223 -85.02849 22976 ft 326 kts 264°
2026-05-06 23:31 40.25106 -85.05808 22360 ft 325 kts 264°
2026-05-06 23:31 40.24990 -85.08754 21764 ft 323 kts 264°
2026-05-06 23:31 40.24874 -85.11673 21196 ft 320 kts 264°
2026-05-06 23:32 40.24757 -85.14581 20641 ft 319 kts 264°
2026-05-06 23:32 40.24640 -85.17475 20088 ft 318 kts 264°
2026-05-06 23:32 40.24521 -85.20358 19540 ft 317 kts 264°
2026-05-06 23:32 40.24402 -85.23238 19002 ft 317 kts 264°
2026-05-06 23:33 40.24281 -85.26129 18450 ft 319 kts 264°
2026-05-06 23:33 40.24160 -85.29037 17829 ft 321 kts 265°
2026-05-06 23:33 40.24038 -85.31957 17227 ft 321 kts 265°
2026-05-06 23:33 40.23914 -85.34880 16658 ft 321 kts 265°
2026-05-06 23:34 40.23764 -85.37791 16080 ft 318 kts 261°
2026-05-06 23:34 40.23207 -85.40546 15528 ft 319 kts 249°
2026-05-06 23:34 40.22200 -85.43138 14985 ft 320 kts 243°
2026-05-06 23:34 40.21089 -85.45663 14434 ft 320 kts 243°
2026-05-06 23:35 40.19980 -85.48181 13898 ft 319 kts 243°
2026-05-06 23:35 40.18878 -85.50695 13299 ft 319 kts 243°
2026-05-06 23:35 40.17779 -85.53218 12692 ft 320 kts 243°
2026-05-06 23:35 40.16682 -85.55752 12138 ft 320 kts 243°
2026-05-06 23:36 40.15587 -85.58284 11648 ft 319 kts 243°
2026-05-06 23:36 40.14514 -85.60758 11538 ft 306 kts 243°
2026-05-06 23:36 40.13486 -85.63138 11326 ft 297 kts 244°
2026-05-06 23:36 40.12491 -85.65466 11101 ft 289 kts 244°
2026-05-06 23:37 40.11524 -85.67732 10866 ft 282 kts 244°
2026-05-06 23:37 40.10587 -85.69925 10653 ft 268 kts 244°
2026-05-06 23:37 40.09705 -85.71985 10449 ft 253 kts 244°
2026-05-06 23:37 40.08852 -85.73984 10262 ft 251 kts 244°
2026-05-06 23:38 40.08006 -85.75962 10078 ft 249 kts 244°
2026-05-06 23:38 40.07161 -85.77935 9889 ft 248 kts 244°
2026-05-06 23:38 40.06316 -85.79905 9699 ft 249 kts 244°
2026-05-06 23:38 40.05452 -85.81867 9494 ft 250 kts 242°
2026-05-06 23:39 40.04523 -85.83790 9303 ft 251 kts 241°
2026-05-06 23:39 40.03598 -85.85685 9112 ft 251 kts 241°
2026-05-06 23:39 40.02619 -85.87579 8845 ft 254 kts 234°
2026-05-06 23:39 40.01430 -85.89293 8551 ft 254 kts 230°
2026-05-06 23:40 40.00196 -85.90931 8224 ft 252 kts 229°
2026-05-06 23:40 39.98975 -85.92545 7920 ft 248 kts 229°
2026-05-06 23:40 39.97770 -85.94154 7609 ft 248 kts 229°
2026-05-06 23:40 39.96566 -85.95771 7321 ft 249 kts 229°
2026-05-06 23:41 39.95356 -85.97407 7010 ft 252 kts 230°
2026-05-06 23:41 39.94149 -85.99042 6790 ft 250 kts 230°
2026-05-06 23:41 39.92946 -86.00672 6476 ft 245 kts 230°
2026-05-06 23:41 39.91764 -86.02280 6098 ft 248 kts 229°
2026-05-06 23:42 39.90566 -86.03911 5830 ft 249 kts 229°
2026-05-06 23:42 39.89373 -86.05533 5527 ft 244 kts 229°
2026-05-06 23:42 39.88247 -86.07060 5169 ft 229 kts 229°
2026-05-06 23:42 39.87173 -86.08515 4860 ft 218 kts 228°
2026-05-06 23:43 39.86109 -86.09890 4593 ft 216 kts 226°
2026-05-06 23:43 39.85035 -86.11257 4345 ft 214 kts 227°
2026-05-06 23:43 39.83974 -86.12604 4046 ft 212 kts 226°
2026-05-06 23:43 39.82944 -86.13925 3746 ft 204 kts 227°
2026-05-06 23:44 39.81958 -86.15189 3479 ft 195 kts 227°
2026-05-06 23:44 39.81002 -86.16413 3279 ft 191 kts 227°
2026-05-06 23:44 39.80069 -86.17595 2991 ft 184 kts 227°
2026-05-06 23:44 39.79179 -86.18732 2767 ft 174 kts 227°
2026-05-06 23:45 39.78342 -86.19805 2630 ft 168 kts 228°
2026-05-06 23:45 39.77497 -86.20889 2385 ft 170 kts 228°
2026-05-06 23:45 39.76660 -86.21962 2170 ft 168 kts 227°
2026-05-06 23:45 39.75826 -86.23030 1936 ft 168 kts 227°
2026-05-06 23:46 39.75034 -86.24042 1684 ft 157 kts 227°
2026-05-06 23:46 39.74287 -86.24999 1473 ft 146 kts 226°
2026-05-06 23:46 39.73564 -86.25924 1269 ft 147 kts 226°
2026-05-06 23:46 39.72820 -86.26872 1081 ft 151 kts 226°
2026-05-06 23:47 39.72075 -86.27824 867 ft 150 kts 226°
2026-05-06 23:47 39.71360 -86.28752 797 ft 134 kts 225°
2026-05-06 23:47 39.70984 -86.29227 791 ft 39 kts 225°
2026-05-06 23:47 39.70822 -86.29379 793 ft 20 kts 175°
2026-05-06 23:48 39.70788 -86.29355 794 ft 0 kts 138°
2026-05-06 23:48 39.70785 -86.29352 794 ft 1 kts 137°
2026-05-06 23:48 39.70776 -86.29335 794 ft 9 kts 116°
2026-05-06 23:49 39.70841 -86.29207 793 ft 26 kts 43°
2026-05-06 23:49 39.70862 -86.29004 794 ft 23 kts 124°
2026-05-06 23:49 39.70925 -86.28842 795 ft 22 kts 42°
2026-05-06 23:49 39.71038 -86.28706 796 ft 22 kts 45°
2026-05-06 23:50 39.71158 -86.28537 796 ft 27 kts 45°
2026-05-06 23:50 39.71371 -86.28329 793 ft 8 kts 289°
2026-05-06 23:50 39.71392 -86.28367 793 ft 0 kts 315°